Location: *
(49.8044°N, 4.0558°E)
Time: 18:03:39
(UTC+00:00)

USA 234 - Pass Details

Date: 09 April 2020
Orbit: 1102 x 1106 km, 123.0° (Epoch: 14 May)

Event Time Altitude Azimuth Distance (km) Brightness Sun altitude
Rises 21:34:30 0° 56° (NE) 3,926 6.1 -25.6°
Reaches altitude 10° 21:37:00 10° 58° (ENE) 2,966 5.5 -25.8°
Maximum altitude 21:43:34 75° 145° (SE) 1,139 3.1 -26.4°
Drops below altitude 10° 21:50:06 10° 230° (SW) 2,958 5.4 -27.0°
Sets 21:52:35 0° 232° (SW) 3,914 6.1 -27.2°
